FW1161 Weather Reports


Display with metric or nautical units.
time (UTC)temp
F
wind
direction
speed
MPH
gust
MPH
rain 1hr
in
rain 24hr
in
rain mn
in
humidity
%
barometer
mb
20260505003043 66 280 0.0 0.0 0.00 0.00 0.00 45 1002.4
20260505001508 68 280 0.0 0.0 0.00 0.00 0.00 43 1002.2
20260505000044 69 280 0.0 3.0 0.00 0.00 0.00 41 1002.1
20260504234555 70 256 1.0 3.0 0.00 0.00 0.00 40 1002.1
20260504233018 71 251 0.0 5.0 0.00 0.00 0.00 38 1001.9
20260504231540 72 261 1.0 6.0 0.00 0.00 0.00 37 1001.9
20260504230005 72 258 2.0 6.0 0.00 0.00 0.00 36 1001.8
20260504224535 72 292 4.0 9.0 0.00 0.00 0.00 36 1001.8
20260504223005 73 319 3.0 7.0 0.00 0.00 0.00 34 1002.0
20260504221527 73 254 3.0 7.0 0.00 0.00 0.00 34 1002.0
20260504220059 73 251 2.0 9.0 0.00 0.00 0.00 35 1002.0
20260504214526 73 270 2.0 11.0 0.00 0.00 0.00 36 1002.2
20260504213107 73 264 4.0 11.0 0.00 0.00 0.00 35 1002.2
20260504211519 74 316 2.0 8.0 0.00 0.00 0.00 34 1002.3
20260504210055 73 292 3.0 10.0 0.00 0.00 0.00 35 1002.2
20260504204511 73 284 6.0 13.0 0.00 0.00 0.00 34 1002.4
20260504203039 73 303 8.0 16.0 0.00 0.00 0.00 35 1002.2
20260504201507 73 254 2.0 12.0 0.00 0.00 0.00 34 1002.3
20260504200024 73 318 2.0 6.0 0.00 0.00 0.00 34 1002.3
20260504194528 73 260 3.0 10.0 0.00 0.00 0.00 34 1002.5
20260504193042 72 278 3.0 14.0 0.00 0.00 0.00 36 1002.5
20260504191611 72 242 3.0 11.0 0.00 0.00 0.00 35 1002.7
20260504190045 72 266 3.0 13.0 0.00 0.00 0.00 37 1003.1
20260504184502 71 275 3.0 11.0 0.00 0.00 0.00 36 1003.2
20260504183022 70 292 4.0 15.0 0.00 0.00 0.00 37 1003.5
20260504181545 70 254 5.0 11.0 0.00 0.00 0.00 35 1003.7
20260504180117 70 260 4.0 13.0 0.00 0.00 0.00 36 1003.9
20260504174516 70 297 5.0 13.0 0.00 0.00 0.00 36 1004.0
20260504173039 70 260 3.0 14.0 0.00 0.00 0.00 36 1004.2
20260504171504 69 256 3.0 10.0 0.00 0.00 0.00 37 1004.4
20260504120110 55 271 1.0 4.0 0.00 0.00 0.00 73 1006.8
20260504100108 47 267 0.0 4.0 0.00 0.00 0.00 76 1007.0
20260504081600 48 291 0.0 2.0 0.00 0.00 0.00 60 1006.9
20260504050012 51 280 0.0 2.0 0.00 0.00 0.00 49 1006.7
20260504044537 51 273 1.0 2.0 0.00 0.00 0.00 49 1006.7
20260504043102 51 282 0.0 1.0 0.00 0.00 0.00 50 1006.6
20260504041526 51 282 0.0 0.0 0.00 0.00 0.00 51 1006.3
20260504040053 51 282 0.0 0.0 0.00 0.00 0.00 50 1006.3
20260504034517 51 282 0.0 0.0 0.00 0.00 0.00 50 1006.2
20260504033040 51 282 0.0 0.0 0.00 0.00 0.00 50 1006.1
20260504031506 52 282 0.0 2.0 0.00 0.00 0.00 49 1006.0
20260504030029 52 290 0.0 0.0 0.00 0.00 0.00 49 1006.0
20260504024616 52 292 0.0 0.0 0.00 0.00 0.00 49 1006.1
20260504023028 52 294 0.0 0.0 0.00 0.00 0.00 49 1006.0
20260504021551 53 294 0.0 0.0 0.00 0.00 0.00 48 1006.0
20260504020021 53 295 0.0 0.0 0.00 0.00 0.00 46 1006.0
20260504014548 53 295 0.0 0.0 0.00 0.00 0.00 47 1005.9
20260504013018 53 294 0.0 0.0 0.00 0.00 0.00 46 1005.8
20260504011505 54 294 0.0 0.0 0.00 0.00 0.00 45 1005.6
20260504010027 55 295 0.0 1.0 0.00 0.00 0.00 42 1005.4
20260504004555 55 294 0.0 1.0 0.00 0.00 0.00 42 1005.3